CW9849 Weather Reports


Display with metric or nautical units.
time (UTC)temp
F
wind
direction
speed
MPH
gust
MPH
rain 1hr
in
rain 24hr
in
rain mn
in
humidity
%
barometer
mb
20260902203022 64 252 18.0 27.0 0.00 0.03 0.03 93 1020.2
20260902201521 64 234 20.0 24.0 0.00 0.03 0.03 93 1019.9
20260902200020 64 231 17.0 22.0 0.00 0.03 0.03 93 1020.0
20260902194521 64 227 19.0 25.0 0.00 0.03 0.03 92 1019.8
20260902193020 64 245 18.0 24.0 0.00 0.03 0.03 92 1019.9
20260902191619 64 240 17.0 29.0 0.00 0.03 0.03 91 1019.6
20260902190028 64 224 16.0 24.0 0.00 0.03 0.03 90 1019.5
20260902184517 65 226 17.0 23.0 0.00 0.04 0.03 89 1019.4
20260902183016 64 243 17.0 22.0 0.00 0.04 0.03 89 1019.3
20260902181515 65 229 18.0 24.0 0.00 0.04 0.03 89 1019.2
20260902180025 65 234 18.0 24.0 0.00 0.04 0.03 88 1019.5
20260902174516 65 226 17.0 23.0 0.00 0.04 0.03 89 1019.4
20260902173012 65 236 16.0 22.0 0.00 0.04 0.03 88 1019.4
20260902171511 66 234 17.0 23.0 0.00 0.04 0.03 88 1019.4
20260902170011 66 231 16.0 25.0 0.00 0.04 0.03 85 1019.3
20260902164510 67 234 14.0 21.0 0.00 0.04 0.03 86 1019.2
20260902163009 68 226 16.0 23.0 0.00 0.04 0.03 86 1019.3
20260902161519 68 231 17.0 25.0 0.00 0.04 0.03 85 1019.5
20260902160009 67 233 20.0 25.0 0.00 0.04 0.03 86 1019.3
20260902154510 68 229 16.0 23.0 0.00 0.04 0.03 86 1019.4
20260902153006 69 229 18.0 26.0 0.00 0.04 0.03 83 1019.4
20260902151505 69 226 14.0 22.0 0.00 0.04 0.03 86 1019.3
20260902150006 69 220 14.0 25.0 0.00 0.04 0.03 83 1019.2
20260902144503 69 229 22.0 27.0 0.00 0.04 0.03 83 1019.1
20260902143003 69 229 18.0 24.0 0.00 0.04 0.03 85 1019.0
20260902141502 68 234 19.0 25.0 0.00 0.04 0.03 86 1019.0
20260902134618 69 236 20.0 28.0 0.00 0.04 0.03 85 1019.0
20260902133059 67 210 19.0 25.0 0.00 0.04 0.03 88 1019.0
20260902131559 69 195 16.0 25.0 0.00 0.04 0.03 84 1018.9
20260902130056 69 236 19.0 25.0 0.00 0.04 0.03 85 1018.8
20260902124555 69 229 19.0 27.0 0.00 0.04 0.03 85 1018.9
20260902123059 68 227 17.0 26.0 0.00 0.04 0.03 86 1018.8
20260902121553 69 226 17.0 23.0 0.00 0.04 0.03 84 1018.9
20260902120055 69 229 16.0 28.0 0.00 0.04 0.03 84 1018.8
20260902114549 68 229 17.0 26.0 0.00 0.04 0.03 86 1018.9
20260902113046 69 227 21.0 26.0 0.00 0.04 0.03 86 1018.9
20260902111546 68 243 18.0 25.0 0.01 0.04 0.03 89 1018.9
20260902110042 67 224 21.0 28.0 0.01 0.04 0.03 89 1018.8
20260902104542 66 236 18.0 28.0 0.01 0.04 0.03 92 1018.8
20260902103039 66 241 19.0 26.0 0.02 0.04 0.03 91 1018.7
20260902101535 66 233 17.0 25.0 0.01 0.03 0.02 93 1018.6
20260902100035 66 234 15.0 23.0 0.01 0.03 0.02 93 1018.6
20260902094531 65 219 17.0 25.0 0.01 0.03 0.02 93 1018.4
20260902093027 65 222 16.0 23.0 0.00 0.02 0.02 93 1018.4
20260902091527 66 206 17.0 28.0 0.00 0.02 0.02 93 1018.4
20260902090023 65 219 16.0 25.0 0.00 0.02 0.02 93 1018.2
20260902084529 64 203 18.0 27.0 0.00 0.02 0.02 93 1018.2
20260902083021 64 201 17.0 28.0 0.00 0.02 0.02 93 1018.0
20260902081521 64 217 18.0 29.0 0.00 0.02 0.02 93 1018.0
20260902080018 64 199 19.0 29.0 0.00 0.02 0.02 93 1017.9
20260902074517 64 192 19.0 26.0 0.01 0.02 0.02 93 1017.9
20260902073016 64 217 18.0 26.0 0.02 0.02 0.02 93 1017.9
20260902071515 63 222 18.0 29.0 0.02 0.02 0.02 92 1018.0
20260902070010 63 219 17.0 27.0 0.02 0.02 0.02 92 1017.8
20260902064521 63 202 18.0 25.0 0.00 0.01 0.00 91 1017.9
20260902063008 63 201 18.0 25.0 0.00 0.01 0.00 91 1017.8
20260902061505 63 181 17.0 25.0 0.00 0.01 0.00 90 1017.9
20260902060005 63 190 17.0 25.0 0.00 0.01 0.00 89 1017.8
20260902054506 63 197 20.0 27.0 0.00 0.01 0.00 89 1018.0
20260902053100 62 207 17.0 26.0 0.00 0.01 0.00 90 1018.3
20260902051600 62 204 14.0 23.0 0.00 0.01 0.00 91 1018.2
20260902050057 62 175 14.0 21.0 0.00 0.01 0.00 91 1018.2
20260902044555 62 222 16.0 24.0 0.00 0.01 0.00 90 1018.5
20260902043108 62 190 15.0 24.0 0.00 0.01 0.00 89 1018.5
20260902041603 62 195 15.0 21.0 0.00 0.01 0.00 86 1018.6
20260902040049 62 188 14.0 27.0 0.00 0.01 0.00 86 1018.9
20260902034551 63 174 17.0 24.0 0.00 0.01 0.00 85 1018.9
20260902033050 62 167 14.0 21.0 0.00 0.01 0.00 87 1019.0
20260902031544 62 173 12.0 18.0 0.00 0.01 0.00 88 1019.2
20260902030045 61 189 9.0 14.0 0.00 0.01 0.00 87 1019.2
20260902024540 61 167 8.0 16.0 0.00 0.01 0.00 86 1019.4
20260902023038 61 202 11.0 19.0 0.00 0.01 0.00 86 1019.6
20260902021537 62 209 15.0 23.0 0.00 0.01 0.00 85 1019.8
20260902020034 63 210 10.0 16.0 0.00 0.01 0.00 87 1019.9
20260902014534 63 214 11.0 16.0 0.00 0.01 0.00 86 1019.9
20260902013031 63 181 11.0 18.0 0.00 0.01 0.00 86 1020.1
20260902011529 62 199 11.0 15.0 0.00 0.01 0.00 87 1020.4
20260902010033 62 202 9.0 15.0 0.00 0.01 0.00 87 1020.4
20260902004529 62 210 9.0 15.0 0.00 0.01 0.00 86 1020.6
20260902003104 62 215 9.0 15.0 0.00 0.01 0.00 86 1020.6
20260902001522 62 197 9.0 14.0 0.00 0.01 0.00 86 1020.6
20260902000030 62 201 9.0 14.0 0.00 0.01 0.00 87 1020.9
20260901234517 62 201 8.0 14.0 0.00 0.01 0.00 86 1020.8
20260901233016 62 178 9.0 13.0 0.00 0.01 0.00 86 1020.9
20260901231514 62 193 9.0 14.0 0.00 0.01 0.00 86 1021.1
20260901230016 62 209 10.0 15.0 0.00 0.01 0.00 86 1021.2
20260901224511 62 214 10.0 14.0 0.00 0.01 0.01 87 1021.2
20260901223011 62 197 7.0 12.0 0.00 0.01 0.01 88 1021.3
20260901221510 62 217 7.0 10.0 0.00 0.01 0.01 88 1021.3
20260901220018 61 196 8.0 10.0 0.00 0.01 0.01 88 1021.5
20260901214508 61 195 7.0 12.0 0.00 0.01 0.01 88 1021.3
20260901213007 61 199 8.0 13.0 0.00 0.01 0.01 88 1021.2
20260901211507 61 202 8.0 12.0 0.00 0.01 0.01 89 1021.3
20260901210005 61 197 6.0 10.0 0.00 0.01 0.01 90 1021.4
20260901204504 60 212 5.0 8.0 0.00 0.01 0.01 91 1021.6